Location: Nians�bougou
(13.2321°N, 4.9818°W)
Time: 14:56:05
(UTC+00:00)

USA 267 - Pass Details

Date: 18 February 2020
Orbit: 1101 x 1107 km, 123.0° (Epoch: 31 March)

Event Time Altitude Azimuth Distance (km) Brightness Sun altitude
Rises 04:41:16 0° 126° (SE) 3,909 7.0 -29.8°
Reaches altitude 10° 04:43:53 10° 119° (ESE) 2,951 6.3 -29.1°
Maximum altitude 04:49:58 43° 50° (NE) 1,489 4.2 -27.7°
Enters shadow 04:54:39 17° 347° (NNW) 2,464 4.9 -26.5°
